Regional Weather Roundup
Issued by NWS New Orleans/Baton Rouge, LA

Home | Current Version | Previous Version | Text Only | Print | Product List | Glossary On
Versions: 1 2 3 4 5 6 7 8 9 10 11 12 13 14 15 16 17 18 19 20 21 22 23 24 25 26 27 28 29 30 31 32 33 34 35 36 37 38 39 40 41 42 43 44 45 46 47 48 49 50
000
ASUS44 KLIX 201610
RWRLIX
NEW ORLEANS REGIONAL WEATHER ROUNDUP
NATIONAL WEATHER SERVICE NEW ORLEANS LA
1000 AM CST SAT DEC 20 2014

NOTE: "FAIR" INDICATES FEW OR NO CLOUDS BELOW 12,000 FEET WITH NO
      SIGNIFICANT WEATHER AND/OR OBSTRUCTIONS TO VISIBILITY.
      SKY/WX - SKY CONDITION AND SIGNIFICANT WEATHER.
      TMP - AIR TEMPERATURE.     DP    - DEWPOINT TEMPERATURE.
      RH  - RELATIVE HUMIDITY.   PRES  - PRESSURE.
      HI  - HEAT INDEX.          WCI   - WIND CHILL INDEX.

*  THESE STATIONS ARE NOT NWS OR FAA STATIONS AND ARE NOT UNDER
   NWS QUALITY CONTROL.

LAZ038-040-048-061>063-065>067-069-201700-
SOUTHEAST LOUISIANA

CITY           SKY/WX    TMP DP  RH WIND       PRES   REMARKS
N.O. AUDUBON     N/A     53  50  89 MISG        N/A
N.O. INTL ARPT CLOUDY    52  48  86 NE14      30.16R
N.O. LAKEFRONT CLOUDY    53  48  83 NE14      30.17R
N.O. DOWNTOWN* CLOUDY    52  46  82 N8        30.17R
SLIDELL        CLOUDY    51  47  86 N10       30.16R
BATON ROUGE    CLOUDY    49  46  90 NE7       30.19R
BOOTHVILLE     CLOUDY    55  53  93 NE10      30.13R
BELLE CHASSE   CLOUDY    53  49  86 NE8       30.15R
BOGALUSA*        N/A     50  46  84 NE10      30.20R
GALLIANO*      CLOUDY    54  52  92 MISG      30.14R
NEW ROADS*     CLOUDY    48  47  95 N9        30.20S
GONZALES*      CLOUDY    50  50  99 N8        30.17R
HAMMOND*       NOT AVBL
HOUMA*         CLOUDY    52  50  93 N14       30.15R FOG
PORT FOURCHON* CLOUDY    54  52  94 NE15G23   30.15S

$$

MSZ070-080>082-201700-
SOUTHERN MISSISSIPPI

CITY           SKY/WX    TMP DP  RH WIND       PRES   REMARKS
MCCOMB         CLOUDY    46  43  89 NE9       30.20R
GULFPORT       CLOUDY    50  47  89 N10       30.15R
BILOXI         CLOUDY    50  50 100 NE13      30.15S
PASCAGOULA     CLOUDY    50  48  93 NE9       30.16R
STENNIS ARPT*  CLOUDY    46  43  87 N12G21    30.17

$$

COASTAL OBSERVATIONS
LAKE AND NEARSHORE STATIONS

STATION/POSITION TIME  TEMP    WIND        PRES    WAVE
                       AIR SEA DIR/SP/G            HT/PER
                 (UTC) (F)     (DEG/KT/KT) (MB)    (FT/S)
PASCAGOULA       1600   49      30/ 10/ 13 1020.3
WAVELAND YACHT   1600   49      20/ 12/ 15 1020.2
GRAND ISLE       1600   54 61   40/ 13/ 17 1020.6
SOUTHWEST PASS   1600   57                 1019.5
NEW CANAL        1600   51 56   40/ 14/ 15 1021.5
SHELL BEACH      1600   51 57   20/ 18/ 19 1020.5

OFFSHORE STATIONS

STATION/POSITION TIME  TEMP    WIND        PRES    WAVE
                       AIR SEA DIR/SP/G            HT/PER
                 (UTC) (F)     (DEG/KT/KT) (MB)    (FT/S)
64 S DAUPHIN ISL 1600   62 74   30/ 27/ 33 1017.9    8/ 7

$$



USA.gov is the U.S. government's official web portal to all federal, state and local government web resources and services.